Year,Month,Day,Hour,Minute,Value (Times are PST for temperature in C)
2016,03,30,00,00,10.60
2016,03,30,00,01,10.60
2016,03,30,00,02,10.60
2016,03,30,00,03,10.60
2016,03,30,00,04,10.70
2016,03,30,00,05,10.70
2016,03,30,00,06,10.70
2016,03,30,00,07,10.70
2016,03,30,00,08,10.70
2016,03,30,00,09,10.70
2016,03,30,00,10,10.70
2016,03,30,00,11,10.70
2016,03,30,00,12,10.70
2016,03,30,00,13,10.70
2016,03,30,00,14,10.70
2016,03,30,00,15,10.60
2016,03,30,00,16,10.60
2016,03,30,00,17,10.60
2016,03,30,00,18,10.60
2016,03,30,00,19,10.60
2016,03,30,00,20,10.70
2016,03,30,00,21,10.70
2016,03,30,00,22,10.70
2016,03,30,00,23,10.70
2016,03,30,00,24,10.60
2016,03,30,00,25,10.50
2016,03,30,00,26,10.30
2016,03,30,00,27,10.10
2016,03,30,00,28,10.00
2016,03,30,00,29,9.90
2016,03,30,00,30,9.80
2016,03,30,00,31,9.70
2016,03,30,00,32,9.60
2016,03,30,00,33,9.50
2016,03,30,00,34,9.50
2016,03,30,00,35,9.40
2016,03,30,00,36,9.40
2016,03,30,00,37,9.30
2016,03,30,00,38,9.30
2016,03,30,00,39,9.30
2016,03,30,00,40,9.30
2016,03,30,00,41,9.30
2016,03,30,00,42,9.30
2016,03,30,00,43,9.20
2016,03,30,00,44,9.20
2016,03,30,00,45,9.20
2016,03,30,00,46,9.20
2016,03,30,00,47,9.10
2016,03,30,00,48,9.10
2016,03,30,00,49,9.10
2016,03,30,00,50,9.10
2016,03,30,00,51,9.10
2016,03,30,00,52,9.00
2016,03,30,00,53,9.00
2016,03,30,00,54,9.00
2016,03,30,00,55,9.00
2016,03,30,00,56,8.90
2016,03,30,00,57,8.90
2016,03,30,00,58,8.90
2016,03,30,00,59,8.80
2016,03,30,01,00,8.80
2016,03,30,01,01,8.80
2016,03,30,01,02,8.70
2016,03,30,01,03,8.70
2016,03,30,01,04,8.80
2016,03,30,01,05,8.80
2016,03,30,01,06,8.80
2016,03,30,01,07,8.80
2016,03,30,01,08,8.80
2016,03,30,01,09,8.80
2016,03,30,01,10,8.70
2016,03,30,01,11,8.70
2016,03,30,01,12,8.70
2016,03,30,01,13,8.70
2016,03,30,01,14,8.70
2016,03,30,01,15,8.70
2016,03,30,01,16,8.70
2016,03,30,01,17,8.70
2016,03,30,01,18,8.70
2016,03,30,01,19,8.70
2016,03,30,01,20,8.70
2016,03,30,01,21,8.70
2016,03,30,01,22,8.60
2016,03,30,01,23,8.60
2016,03,30,01,24,8.60
2016,03,30,01,25,8.60
2016,03,30,01,26,8.60
2016,03,30,01,27,8.60
2016,03,30,01,28,8.60
2016,03,30,01,29,8.60
2016,03,30,01,30,8.60
2016,03,30,01,31,8.60
2016,03,30,01,32,8.60
2016,03,30,01,33,8.60
2016,03,30,01,34,8.60
2016,03,30,01,35,8.60
2016,03,30,01,36,8.60
2016,03,30,01,37,8.60
2016,03,30,01,38,8.60
2016,03,30,01,39,8.60
2016,03,30,01,40,8.60
2016,03,30,01,41,8.60
2016,03,30,01,42,8.60
2016,03,30,01,43,8.50
2016,03,30,01,44,8.50
2016,03,30,01,45,8.40
2016,03,30,01,46,8.40
2016,03,30,01,47,8.30
2016,03,30,01,48,8.30
2016,03,30,01,49,8.20
2016,03,30,01,50,8.20
2016,03,30,01,51,8.10
2016,03,30,01,52,8.00
2016,03,30,01,53,8.00
2016,03,30,01,54,7.90
2016,03,30,01,55,7.90
2016,03,30,01,56,7.90
2016,03,30,01,57,7.80
2016,03,30,01,58,7.80
2016,03,30,01,59,7.80
2016,03,30,02,00,7.80
2016,03,30,02,01,7.80
2016,03,30,02,02,7.80
2016,03,30,02,03,7.70
2016,03,30,02,04,7.70
2016,03,30,02,05,7.70
2016,03,30,02,06,7.70
2016,03,30,02,07,7.70
2016,03,30,02,08,7.70
2016,03,30,02,09,7.70
2016,03,30,02,10,7.70
2016,03,30,02,11,7.80
2016,03,30,02,12,7.80
2016,03,30,02,13,7.90
2016,03,30,02,14,7.90
2016,03,30,02,15,7.90
2016,03,30,02,16,8.00
2016,03,30,02,17,8.10
2016,03,30,02,18,8.10
2016,03,30,02,19,8.10
2016,03,30,02,20,8.20
2016,03,30,02,21,8.20
2016,03,30,02,22,8.20
2016,03,30,02,23,8.30
2016,03,30,02,24,8.30
2016,03,30,02,25,8.30
2016,03,30,02,26,8.40
2016,03,30,02,27,8.40
2016,03,30,02,28,8.40
2016,03,30,02,29,8.40
2016,03,30,02,30,8.30
2016,03,30,02,31,8.30
2016,03,30,02,32,8.30
2016,03,30,02,33,8.30
2016,03,30,02,34,8.30
2016,03,30,02,35,8.20
2016,03,30,02,36,8.20
2016,03,30,02,37,8.20
2016,03,30,02,38,8.10
2016,03,30,02,39,8.10
2016,03,30,02,40,8.00
2016,03,30,02,41,8.00
2016,03,30,02,42,7.90
2016,03,30,02,43,7.90
2016,03,30,02,44,7.90
2016,03,30,02,45,7.80
2016,03,30,02,46,7.80
2016,03,30,02,47,7.80
2016,03,30,02,48,7.70
2016,03,30,02,49,7.60
2016,03,30,02,50,7.50
2016,03,30,02,51,7.40
2016,03,30,02,52,7.30
2016,03,30,02,53,7.20
2016,03,30,02,54,7.20
2016,03,30,02,55,7.00
2016,03,30,02,56,6.90
2016,03,30,02,57,6.80
2016,03,30,02,58,6.80
2016,03,30,02,59,6.70
2016,03,30,03,00,6.70
2016,03,30,03,01,6.70
2016,03,30,03,02,6.70
2016,03,30,03,03,6.70
2016,03,30,03,04,6.70
2016,03,30,03,05,6.70
2016,03,30,03,06,6.80
2016,03,30,03,07,6.90
2016,03,30,03,08,6.90
2016,03,30,03,09,7.00
2016,03,30,03,10,7.00
2016,03,30,03,11,7.10
2016,03,30,03,12,7.20
2016,03,30,03,13,7.20
2016,03,30,03,14,7.30
2016,03,30,03,15,7.40
2016,03,30,03,16,7.50
2016,03,30,03,17,7.60
2016,03,30,03,18,7.60
2016,03,30,03,19,7.70
2016,03,30,03,20,7.80
2016,03,30,03,21,7.80
2016,03,30,03,22,7.90
2016,03,30,03,23,7.90
2016,03,30,03,24,8.00
2016,03,30,03,25,8.00
2016,03,30,03,26,8.00
2016,03,30,03,27,8.00
2016,03,30,03,28,8.00
2016,03,30,03,29,8.00
2016,03,30,03,30,8.00
2016,03,30,03,31,7.90
2016,03,30,03,32,7.90
2016,03,30,03,33,7.80
2016,03,30,03,34,7.70
2016,03,30,03,35,7.70
2016,03,30,03,36,7.60
2016,03,30,03,37,7.50
2016,03,30,03,38,7.50
2016,03,30,03,39,7.40
2016,03,30,03,40,7.30
2016,03,30,03,41,7.30
2016,03,30,03,42,7.20
2016,03,30,03,43,7.20
2016,03,30,03,44,7.20
2016,03,30,03,45,7.20
2016,03,30,03,46,7.20
2016,03,30,03,47,7.20
2016,03,30,03,48,7.20
2016,03,30,03,49,7.20
2016,03,30,03,50,7.20
2016,03,30,03,51,7.20
2016,03,30,03,52,7.20
2016,03,30,03,53,7.20
2016,03,30,03,54,7.20
2016,03,30,03,55,7.20
2016,03,30,03,56,7.30
2016,03,30,03,57,7.30
2016,03,30,03,58,7.30
2016,03,30,03,59,7.30
2016,03,30,04,00,7.30
2016,03,30,04,01,7.30
2016,03,30,04,02,7.30
2016,03,30,04,03,7.30
2016,03,30,04,04,7.30
2016,03,30,04,05,7.30
2016,03,30,04,06,7.30
2016,03,30,04,07,7.30
2016,03,30,04,08,7.30
2016,03,30,04,09,7.30
2016,03,30,04,10,7.40
2016,03,30,04,11,7.40
2016,03,30,04,12,7.40
2016,03,30,04,13,7.50
2016,03,30,04,14,7.50
2016,03,30,04,15,7.60
2016,03,30,04,16,7.60
2016,03,30,04,17,7.60
2016,03,30,04,18,7.60
2016,03,30,04,19,7.70
2016,03,30,04,20,7.70
2016,03,30,04,21,7.70
2016,03,30,04,22,7.70
2016,03,30,04,23,7.70
2016,03,30,04,24,7.70
2016,03,30,04,25,7.80
2016,03,30,04,26,7.80
2016,03,30,04,27,7.80
2016,03,30,04,28,7.80
2016,03,30,04,29,7.80
2016,03,30,04,30,7.90
2016,03,30,04,31,7.90
2016,03,30,04,32,7.90
2016,03,30,04,33,7.90
2016,03,30,04,34,7.90
2016,03,30,04,35,7.90
2016,03,30,04,36,8.00
2016,03,30,04,37,8.00
2016,03,30,04,38,8.10
2016,03,30,04,39,8.10
2016,03,30,04,40,8.10
2016,03,30,04,41,8.20
2016,03,30,04,42,8.20
2016,03,30,04,43,8.20
2016,03,30,04,44,8.30
2016,03,30,04,45,8.30
2016,03,30,04,46,8.30
2016,03,30,04,47,8.30
2016,03,30,04,48,8.40
2016,03,30,04,49,8.40
2016,03,30,04,50,8.40
2016,03,30,04,51,8.40
2016,03,30,04,52,8.50
2016,03,30,04,53,8.50
2016,03,30,04,54,8.50
2016,03,30,04,55,8.50
2016,03,30,04,56,8.60
2016,03,30,04,57,8.60
2016,03,30,04,58,8.70
2016,03,30,04,59,8.70
2016,03,30,05,00,8.80
2016,03,30,05,01,8.80
2016,03,30,05,02,8.80
2016,03,30,05,03,8.90
2016,03,30,05,04,9.00
2016,03,30,05,05,9.00
2016,03,30,05,06,9.10
2016,03,30,05,07,9.10
2016,03,30,05,08,9.10
2016,03,30,05,09,9.10
2016,03,30,05,10,9.00
2016,03,30,05,11,8.90
2016,03,30,05,12,8.90
2016,03,30,05,13,8.80
2016,03,30,05,14,8.70
2016,03,30,05,15,8.60
2016,03,30,05,16,8.60
2016,03,30,05,17,8.50
2016,03,30,05,18,8.40
2016,03,30,05,19,8.20
2016,03,30,05,20,8.10
2016,03,30,05,21,8.00
2016,03,30,05,22,7.90
2016,03,30,05,23,7.80
2016,03,30,05,24,7.70
2016,03,30,05,25,7.60
2016,03,30,05,26,7.50
2016,03,30,05,27,7.40
2016,03,30,05,28,7.40
2016,03,30,05,29,7.30
2016,03,30,05,30,7.30
2016,03,30,05,31,7.30
2016,03,30,05,32,7.30
2016,03,30,05,33,7.30
2016,03,30,05,34,7.40
2016,03,30,05,35,7.60
2016,03,30,05,36,7.70
2016,03,30,05,37,7.90
2016,03,30,05,38,8.00
2016,03,30,05,39,8.20
2016,03,30,05,40,8.30
2016,03,30,05,41,8.40
2016,03,30,05,42,8.50
2016,03,30,05,43,8.60
2016,03,30,05,44,8.70
2016,03,30,05,45,8.80
2016,03,30,05,46,8.90
2016,03,30,05,47,8.90
2016,03,30,05,48,8.90
2016,03,30,05,49,8.90
2016,03,30,05,50,8.90
2016,03,30,05,51,8.90
2016,03,30,05,52,8.80
2016,03,30,05,53,8.80
2016,03,30,05,54,8.80
2016,03,30,05,55,8.70
2016,03,30,05,56,8.70
2016,03,30,05,57,8.60
2016,03,30,05,58,8.60
2016,03,30,05,59,8.60
2016,03,30,06,00,8.60
2016,03,30,06,01,8.50
2016,03,30,06,02,8.50
2016,03,30,06,03,8.50
2016,03,30,06,04,8.40
2016,03,30,06,05,8.30
2016,03,30,06,06,8.20
2016,03,30,06,07,8.10
2016,03,30,06,08,8.00
2016,03,30,06,09,7.90
2016,03,30,06,10,7.80
2016,03,30,06,11,7.70
2016,03,30,06,12,7.70
2016,03,30,06,13,7.70
2016,03,30,06,14,7.70
2016,03,30,06,15,7.80
2016,03,30,06,16,7.80
2016,03,30,06,17,7.90
2016,03,30,06,18,7.90
2016,03,30,06,19,7.80
2016,03,30,06,20,7.70
2016,03,30,06,21,7.60
2016,03,30,06,22,7.50
2016,03,30,06,23,7.40
2016,03,30,06,24,7.20
2016,03,30,06,25,7.20
2016,03,30,06,26,7.10
2016,03,30,06,27,7.00
2016,03,30,06,28,6.90
2016,03,30,06,29,6.90
2016,03,30,06,30,6.80
2016,03,30,06,31,6.70
2016,03,30,06,32,6.70
2016,03,30,06,33,6.70
2016,03,30,06,34,6.60
2016,03,30,06,35,6.60
2016,03,30,06,36,6.60
2016,03,30,06,37,6.60
2016,03,30,06,38,6.50
2016,03,30,06,39,6.50
2016,03,30,06,40,6.50
2016,03,30,06,41,6.40
2016,03,30,06,42,6.40
2016,03,30,06,43,6.50
2016,03,30,06,44,6.50
2016,03,30,06,45,6.50
2016,03,30,06,46,6.50
2016,03,30,06,47,6.60
2016,03,30,06,48,6.60
2016,03,30,06,49,6.60
2016,03,30,06,50,6.70
2016,03,30,06,51,6.70
2016,03,30,06,52,6.80
2016,03,30,06,53,6.90
2016,03,30,06,54,6.90
2016,03,30,06,55,7.00
2016,03,30,06,56,7.10
2016,03,30,06,57,7.20
2016,03,30,06,58,7.20
2016,03,30,06,59,7.20
2016,03,30,07,00,7.30
2016,03,30,07,01,7.30
2016,03,30,07,02,7.40
2016,03,30,07,03,7.40
2016,03,30,07,04,7.40
2016,03,30,07,05,7.50
2016,03,30,07,06,7.50
2016,03,30,07,07,7.50
2016,03,30,07,08,7.40
2016,03,30,07,09,7.40
2016,03,30,07,10,7.30
2016,03,30,07,11,7.30
2016,03,30,07,12,7.20
2016,03,30,07,13,7.20
2016,03,30,07,14,7.20
2016,03,30,07,15,7.10
2016,03,30,07,16,7.00
2016,03,30,07,17,6.90
2016,03,30,07,18,6.90
2016,03,30,07,19,6.80
2016,03,30,07,20,6.70
2016,03,30,07,21,6.70
2016,03,30,07,22,6.60
2016,03,30,07,23,6.50
2016,03,30,07,24,6.50
2016,03,30,07,25,6.40
2016,03,30,07,26,6.40
2016,03,30,07,27,6.40
2016,03,30,07,28,6.30
2016,03,30,07,29,6.30
2016,03,30,07,30,6.30
2016,03,30,07,31,6.30
2016,03,30,07,32,6.20
2016,03,30,07,33,6.20
2016,03,30,07,34,6.20
2016,03,30,07,35,6.20
2016,03,30,07,36,6.20
2016,03,30,07,37,6.20
2016,03,30,07,38,6.20
2016,03,30,07,39,6.20
2016,03,30,07,40,6.20
2016,03,30,07,41,6.20
2016,03,30,07,42,6.20
2016,03,30,07,43,6.20
2016,03,30,07,44,6.30
2016,03,30,07,45,6.30
2016,03,30,07,46,6.30
2016,03,30,07,47,6.40
2016,03,30,07,48,6.40
2016,03,30,07,49,6.50
2016,03,30,07,50,6.50
2016,03,30,07,51,6.60
2016,03,30,07,52,6.60
2016,03,30,07,53,6.60
2016,03,30,07,54,6.70
2016,03,30,07,55,6.70
2016,03,30,07,56,6.80
2016,03,30,07,57,6.90
2016,03,30,07,58,7.00
2016,03,30,07,59,7.10
2016,03,30,08,00,7.20
2016,03,30,08,01,7.20
2016,03,30,08,02,7.30
2016,03,30,08,03,7.30
2016,03,30,08,04,7.40
2016,03,30,08,05,7.50
2016,03,30,08,06,7.50
2016,03,30,08,07,7.60
2016,03,30,08,08,7.70
2016,03,30,08,09,7.80
2016,03,30,08,10,7.80
2016,03,30,08,11,7.90
2016,03,30,08,12,8.00
2016,03,30,08,13,8.10
2016,03,30,08,14,8.20
2016,03,30,08,15,8.20
2016,03,30,08,16,8.30
2016,03,30,08,17,8.30
2016,03,30,08,18,8.40
2016,03,30,08,19,8.40
2016,03,30,08,20,8.50
2016,03,30,08,21,8.50
2016,03,30,08,22,8.60
2016,03,30,08,23,8.60
2016,03,30,08,24,8.60
2016,03,30,08,25,8.60
2016,03,30,08,26,8.60
2016,03,30,08,27,8.60
2016,03,30,08,28,8.70
2016,03,30,08,29,8.70
2016,03,30,08,30,8.70
2016,03,30,08,31,8.80
2016,03,30,08,32,8.80
2016,03,30,08,33,8.80
2016,03,30,08,34,8.90
2016,03,30,08,35,8.90
2016,03,30,08,36,9.00
2016,03,30,08,37,9.10
2016,03,30,08,38,9.20
2016,03,30,08,39,9.30
2016,03,30,08,40,9.40
2016,03,30,08,41,9.60
2016,03,30,08,42,9.70
2016,03,30,08,43,9.90
2016,03,30,08,44,10.00
2016,03,30,08,45,10.20
2016,03,30,08,46,10.30
2016,03,30,08,47,10.40
2016,03,30,08,48,10.60
2016,03,30,08,49,10.70
2016,03,30,08,50,10.80
2016,03,30,08,51,10.90
2016,03,30,08,52,11.10
2016,03,30,08,53,11.20
2016,03,30,08,54,11.30
2016,03,30,08,55,11.40
2016,03,30,08,56,11.50
2016,03,30,08,57,11.60
2016,03,30,08,58,11.60
2016,03,30,08,59,11.70
2016,03,30,09,00,11.80
2016,03,30,09,01,11.80
2016,03,30,09,02,11.90
2016,03,30,09,03,11.90
2016,03,30,09,04,12.00
2016,03,30,09,05,12.00
2016,03,30,09,06,12.10
2016,03,30,09,07,12.10
2016,03,30,09,08,12.10
2016,03,30,09,09,12.20
2016,03,30,09,10,12.30
2016,03,30,09,11,12.30
2016,03,30,09,12,12.40
2016,03,30,09,13,12.40
2016,03,30,09,14,12.50
2016,03,30,09,15,12.50
2016,03,30,09,16,12.60
2016,03,30,09,17,12.70
2016,03,30,09,18,12.70
2016,03,30,09,19,12.80
2016,03,30,09,20,12.90
2016,03,30,09,21,12.90
2016,03,30,09,22,13.00
2016,03,30,09,23,13.10
2016,03,30,09,24,13.20
2016,03,30,09,25,13.30
2016,03,30,09,26,13.40
2016,03,30,09,27,13.50
2016,03,30,09,28,13.50
2016,03,30,09,29,13.60
2016,03,30,09,30,13.60
2016,03,30,09,31,13.60
2016,03,30,09,32,13.60
2016,03,30,09,33,13.60
2016,03,30,09,34,13.60
2016,03,30,09,35,13.60
2016,03,30,09,36,13.60
2016,03,30,09,37,13.60
2016,03,30,09,38,13.70
2016,03,30,09,39,13.70
2016,03,30,09,40,13.70
2016,03,30,09,41,13.80
2016,03,30,09,42,13.80
2016,03,30,09,43,13.90
2016,03,30,09,44,13.90
2016,03,30,09,45,13.90
2016,03,30,09,46,13.90
2016,03,30,09,47,13.90
2016,03,30,09,48,13.90
2016,03,30,09,49,13.90
2016,03,30,09,50,14.00
2016,03,30,09,51,14.00
2016,03,30,09,52,13.90
2016,03,30,09,53,13.90
2016,03,30,09,54,13.90
2016,03,30,09,55,13.90
2016,03,30,09,56,13.80
2016,03,30,09,57,13.80
2016,03,30,09,58,13.80
2016,03,30,09,59,13.80
2016,03,30,10,00,13.80
2016,03,30,10,01,13.90
2016,03,30,10,02,13.90
2016,03,30,10,03,13.90
2016,03,30,10,04,14.00
2016,03,30,10,05,14.00
2016,03,30,10,06,14.10
2016,03,30,10,07,14.00
2016,03,30,10,08,14.00
2016,03,30,10,09,14.00
2016,03,30,10,10,14.00
2016,03,30,10,11,14.00
2016,03,30,10,12,14.00
2016,03,30,10,13,14.00
2016,03,30,10,14,14.10
2016,03,30,10,15,14.10
2016,03,30,10,16,14.20
2016,03,30,10,17,14.20
2016,03,30,10,18,14.10
2016,03,30,10,19,14.10
2016,03,30,10,20,14.10
2016,03,30,10,21,14.00
2016,03,30,10,22,14.00
2016,03,30,10,23,13.90
2016,03,30,10,24,13.90
2016,03,30,10,25,13.90
2016,03,30,10,26,13.90
2016,03,30,10,27,13.90
2016,03,30,10,28,14.00
2016,03,30,10,29,14.00
2016,03,30,10,30,14.00
2016,03,30,10,31,14.10
2016,03,30,10,32,14.10
2016,03,30,10,33,14.10
2016,03,30,10,34,14.00
2016,03,30,10,35,14.00
2016,03,30,10,36,14.00
2016,03,30,10,37,14.00
2016,03,30,10,38,14.00
2016,03,30,10,39,14.00
2016,03,30,10,40,14.00
2016,03,30,10,41,14.00
2016,03,30,10,42,14.00
2016,03,30,10,43,14.00
2016,03,30,10,44,14.00
2016,03,30,10,45,14.00
2016,03,30,10,46,14.00
2016,03,30,10,47,14.00
2016,03,30,10,48,14.10
2016,03,30,10,49,14.20
2016,03,30,10,50,14.20
2016,03,30,10,51,14.30
2016,03,30,10,52,14.30
2016,03,30,10,53,14.30
2016,03,30,10,54,14.40
2016,03,30,10,55,14.50
2016,03,30,10,56,14.50
2016,03,30,10,57,14.60
2016,03,30,10,58,14.70
2016,03,30,10,59,14.80
2016,03,30,11,00,14.90
2016,03,30,11,01,15.00
2016,03,30,11,02,15.00
2016,03,30,11,03,15.00
2016,03,30,11,04,15.00
2016,03,30,11,05,15.00
2016,03,30,11,06,14.90
2016,03,30,11,07,14.80
2016,03,30,11,08,14.80
2016,03,30,11,09,14.80
2016,03,30,11,10,14.80
2016,03,30,11,11,14.80
2016,03,30,11,12,14.80
2016,03,30,11,13,14.80
2016,03,30,11,14,14.80
2016,03,30,11,15,14.80
2016,03,30,11,16,14.80
2016,03,30,11,17,14.90
2016,03,30,11,18,14.90
2016,03,30,11,19,14.80
2016,03,30,11,20,14.70
2016,03,30,11,21,14.60
2016,03,30,11,22,14.60
2016,03,30,11,23,14.50
2016,03,30,11,24,14.50
2016,03,30,11,25,14.40
2016,03,30,11,26,14.40
2016,03,30,11,27,14.40
2016,03,30,11,28,14.40
2016,03,30,11,29,14.40
2016,03,30,11,30,14.50
2016,03,30,11,31,14.60
2016,03,30,11,32,14.60
2016,03,30,11,33,14.60
2016,03,30,11,34,14.60
2016,03,30,11,35,14.60
2016,03,30,11,36,14.60
2016,03,30,11,37,14.60
2016,03,30,11,38,14.60
2016,03,30,11,39,14.60
2016,03,30,11,40,14.50
2016,03,30,11,41,14.50
2016,03,30,11,42,14.50
2016,03,30,11,43,14.50
2016,03,30,11,44,14.50
2016,03,30,11,45,14.60
2016,03,30,11,46,14.60
2016,03,30,11,47,14.70
2016,03,30,11,48,14.70
2016,03,30,11,49,14.70
2016,03,30,11,50,14.80
2016,03,30,11,51,14.80
2016,03,30,11,52,14.80
2016,03,30,11,53,14.70
2016,03,30,11,54,14.70
2016,03,30,11,55,14.70
2016,03,30,11,56,14.70
2016,03,30,11,57,14.80
2016,03,30,11,58,14.80
2016,03,30,11,59,14.90
2016,03,30,12,00,15.00
2016,03,30,12,01,15.00
2016,03,30,12,02,15.00
2016,03,30,12,03,15.00
2016,03,30,12,04,15.00
2016,03,30,12,05,14.90
2016,03,30,12,06,14.90
2016,03,30,12,07,14.90
2016,03,30,12,08,14.90
2016,03,30,12,09,14.90
2016,03,30,12,10,14.90
2016,03,30,12,11,14.90
2016,03,30,12,12,15.00
2016,03,30,12,13,15.00
2016,03,30,12,14,15.00
2016,03,30,12,15,15.00
2016,03,30,12,16,15.00
2016,03,30,12,17,15.00
2016,03,30,12,18,15.10
2016,03,30,12,19,15.20
2016,03,30,12,20,15.30
2016,03,30,12,21,15.30
2016,03,30,12,22,15.30
2016,03,30,12,23,15.40
2016,03,30,12,24,15.40
2016,03,30,12,25,15.40
2016,03,30,12,26,15.50
2016,03,30,12,27,15.50
2016,03,30,12,28,15.50
2016,03,30,12,29,15.50
2016,03,30,12,30,15.60
2016,03,30,12,31,15.70
2016,03,30,12,32,15.80
2016,03,30,12,33,15.80
2016,03,30,12,34,15.90
2016,03,30,12,35,16.10
2016,03,30,12,36,16.10
2016,03,30,12,37,16.20
2016,03,30,12,38,16.30
2016,03,30,12,39,16.30
2016,03,30,12,40,16.30
2016,03,30,12,41,16.40
2016,03,30,12,42,16.40
2016,03,30,12,43,16.40
2016,03,30,12,44,16.40
2016,03,30,12,45,16.40
2016,03,30,12,46,16.40
2016,03,30,12,47,16.40
2016,03,30,12,48,16.40
2016,03,30,12,49,16.30
2016,03,30,12,50,16.30
2016,03,30,12,51,16.40
2016,03,30,12,52,16.40
2016,03,30,12,53,16.40
2016,03,30,12,54,16.50
2016,03,30,12,55,16.50
2016,03,30,12,56,16.60
2016,03,30,12,57,16.70
2016,03,30,12,58,16.70
2016,03,30,12,59,16.80
2016,03,30,13,00,16.80
2016,03,30,13,01,16.90
2016,03,30,13,02,16.90
2016,03,30,13,03,17.00
2016,03,30,13,04,17.10
2016,03,30,13,05,17.00
2016,03,30,13,06,17.00
2016,03,30,13,07,17.00
2016,03,30,13,08,17.00
2016,03,30,13,09,17.10
2016,03,30,13,10,17.10
2016,03,30,13,11,17.20
2016,03,30,13,12,17.30
2016,03,30,13,13,17.30
2016,03,30,13,14,17.30
2016,03,30,13,15,17.40
2016,03,30,13,16,17.40
2016,03,30,13,17,17.40
2016,03,30,13,18,17.40
2016,03,30,13,19,17.30
2016,03,30,13,20,17.30
2016,03,30,13,21,17.30
2016,03,30,13,22,17.30
2016,03,30,13,23,17.30
2016,03,30,13,24,17.30
2016,03,30,13,25,17.40
2016,03,30,13,26,17.50
2016,03,30,13,27,17.60
2016,03,30,13,28,17.60
2016,03,30,13,29,17.70
2016,03,30,13,30,17.80
2016,03,30,13,31,17.80
2016,03,30,13,32,17.90
2016,03,30,13,33,17.90
2016,03,30,13,34,17.90
2016,03,30,13,35,17.80
2016,03,30,13,36,17.80
2016,03,30,13,37,17.80
2016,03,30,13,38,17.90
2016,03,30,13,39,17.90
2016,03,30,13,40,17.90
2016,03,30,13,41,17.80
2016,03,30,13,42,17.70
2016,03,30,13,43,17.60
2016,03,30,13,44,17.50
2016,03,30,13,45,17.30
2016,03,30,13,46,17.30
2016,03,30,13,47,17.30
2016,03,30,13,48,17.30
2016,03,30,13,49,17.10
2016,03,30,13,50,16.90
2016,03,30,13,51,16.80
2016,03,30,13,52,16.80
2016,03,30,13,53,16.70
2016,03,30,13,54,16.70
2016,03,30,13,55,16.70
2016,03,30,13,56,16.70
2016,03,30,13,57,16.70
2016,03,30,13,58,16.60
2016,03,30,13,59,16.60
2016,03,30,14,00,16.60
2016,03,30,14,01,16.70
2016,03,30,14,02,16.60
2016,03,30,14,03,16.60
2016,03,30,14,04,16.60
2016,03,30,14,05,16.50
2016,03,30,14,06,16.40
2016,03,30,14,07,16.30
2016,03,30,14,08,16.20
2016,03,30,14,09,16.20
2016,03,30,14,10,16.20
2016,03,30,14,11,16.20
2016,03,30,14,12,16.20
2016,03,30,14,13,16.20
2016,03,30,14,14,16.10
2016,03,30,14,15,16.10
2016,03,30,14,16,16.00
2016,03,30,14,17,16.00
2016,03,30,14,18,16.00
2016,03,30,14,19,16.00
2016,03,30,14,20,16.00
2016,03,30,14,21,16.00
2016,03,30,14,22,16.10
2016,03,30,14,23,16.20
2016,03,30,14,24,16.20
2016,03,30,14,25,16.20
2016,03,30,14,26,16.20
2016,03,30,14,27,16.20
2016,03,30,14,28,16.20
2016,03,30,14,29,16.30
2016,03,30,14,30,16.20
2016,03,30,14,31,16.20
2016,03,30,14,32,16.10
2016,03,30,14,33,16.00
2016,03,30,14,34,15.90
2016,03,30,14,35,15.90
2016,03,30,14,36,15.80
2016,03,30,14,37,15.90
2016,03,30,14,38,15.80
2016,03,30,14,39,15.80
2016,03,30,14,40,15.90
2016,03,30,14,41,15.90
2016,03,30,14,42,15.90
2016,03,30,14,43,15.90
2016,03,30,14,44,15.90
2016,03,30,14,45,15.90
2016,03,30,14,46,15.90
2016,03,30,14,47,15.90
2016,03,30,14,48,16.00
2016,03,30,14,49,16.00
2016,03,30,14,50,16.00
2016,03,30,14,51,16.00
2016,03,30,14,52,16.10
2016,03,30,14,53,16.10
2016,03,30,14,54,16.10
2016,03,30,14,55,16.10
2016,03,30,14,56,16.00
2016,03,30,14,57,16.10
2016,03,30,14,58,16.10
2016,03,30,14,59,16.10
2016,03,30,15,00,16.20
2016,03,30,15,01,16.20
2016,03,30,15,02,16.30
2016,03,30,15,03,16.30
2016,03,30,15,04,16.40
2016,03,30,15,05,16.50
2016,03,30,15,06,16.60
2016,03,30,15,07,16.70
2016,03,30,15,08,16.80
2016,03,30,15,09,16.80
2016,03,30,15,10,16.80
2016,03,30,15,11,16.80
2016,03,30,15,12,16.90
2016,03,30,15,13,16.90
2016,03,30,15,14,16.90
2016,03,30,15,15,16.90
2016,03,30,15,16,16.90
2016,03,30,15,17,16.90
2016,03,30,15,18,17.00
2016,03,30,15,19,17.00
2016,03,30,15,20,17.10
2016,03,30,15,21,17.10
2016,03,30,15,22,17.10
2016,03,30,15,23,17.10
2016,03,30,15,24,17.10
2016,03,30,15,25,17.10
2016,03,30,15,26,17.20
2016,03,30,15,27,17.20
2016,03,30,15,28,17.30
2016,03,30,15,29,17.30
2016,03,30,15,30,17.40
2016,03,30,15,31,17.30
2016,03,30,15,32,17.30
2016,03,30,15,33,17.30
2016,03,30,15,34,17.40
2016,03,30,15,35,17.60
2016,03,30,15,36,17.70
2016,03,30,15,37,17.70
2016,03,30,15,38,17.70
2016,03,30,15,39,17.70
2016,03,30,15,40,17.70
2016,03,30,15,41,17.60
2016,03,30,15,42,17.50
2016,03,30,15,43,17.50
2016,03,30,15,44,17.50
2016,03,30,15,45,17.60
2016,03,30,15,46,17.70
2016,03,30,15,47,17.80
2016,03,30,15,48,17.80
2016,03,30,15,49,17.90
2016,03,30,15,50,18.00
2016,03,30,15,51,18.10
2016,03,30,15,52,18.10
2016,03,30,15,53,18.10
2016,03,30,15,54,18.20
2016,03,30,15,55,18.20
2016,03,30,15,56,18.30
2016,03,30,15,57,18.30
2016,03,30,15,58,18.30
2016,03,30,15,59,18.30
2016,03,30,16,00,18.40
2016,03,30,16,01,18.40
2016,03,30,16,02,18.50
2016,03,30,16,03,18.60
2016,03,30,16,04,18.60
2016,03,30,16,05,18.60
2016,03,30,16,06,18.70
2016,03,30,16,07,18.70
2016,03,30,16,08,18.70
2016,03,30,16,09,18.70
2016,03,30,16,10,18.70
2016,03,30,16,11,18.80
2016,03,30,16,12,18.80
2016,03,30,16,13,18.80
2016,03,30,16,14,18.80
2016,03,30,16,15,18.90
2016,03,30,16,16,18.90
2016,03,30,16,17,19.00
2016,03,30,16,18,19.10
2016,03,30,16,19,19.30
2016,03,30,16,20,19.30
2016,03,30,16,21,19.50
2016,03,30,16,22,19.60
2016,03,30,16,23,19.70
2016,03,30,16,24,19.70
2016,03,30,16,25,19.70
2016,03,30,16,26,19.60
2016,03,30,16,27,19.60
2016,03,30,16,28,19.60
2016,03,30,16,29,19.60
2016,03,30,16,30,19.70
2016,03,30,16,31,19.70
2016,03,30,16,32,19.70
2016,03,30,16,33,19.70
2016,03,30,16,34,19.70
2016,03,30,16,35,19.60
2016,03,30,16,36,19.60
2016,03,30,16,37,19.50
2016,03,30,16,38,19.40
2016,03,30,16,39,19.30
2016,03,30,16,40,19.30
2016,03,30,16,41,19.20
2016,03,30,16,42,19.20
2016,03,30,16,43,19.20
2016,03,30,16,44,19.10
2016,03,30,16,45,19.10
2016,03,30,16,46,19.20
2016,03,30,16,47,19.20
2016,03,30,16,48,19.20
2016,03,30,16,49,19.10
2016,03,30,16,50,19.20
2016,03,30,16,51,19.20
2016,03,30,16,52,19.30
2016,03,30,16,53,19.30
2016,03,30,16,54,19.40
2016,03,30,16,55,19.50
2016,03,30,16,56,19.60
2016,03,30,16,57,19.60
2016,03,30,16,58,19.50
2016,03,30,16,59,19.40
2016,03,30,17,00,19.30
2016,03,30,17,01,19.30
2016,03,30,17,02,19.30
2016,03,30,17,03,19.20
2016,03,30,17,04,19.10
2016,03,30,17,05,19.10
2016,03,30,17,06,19.00
2016,03,30,17,07,18.90
2016,03,30,17,08,18.80
2016,03,30,17,09,18.70
2016,03,30,17,10,18.70
2016,03,30,17,11,18.60
2016,03,30,17,12,18.60
2016,03,30,17,13,18.60
2016,03,30,17,14,18.60
2016,03,30,17,15,18.60
2016,03,30,17,16,18.60
2016,03,30,17,17,18.60
2016,03,30,17,18,18.60
2016,03,30,17,19,18.60
2016,03,30,17,20,18.60
2016,03,30,17,21,18.70
2016,03,30,17,22,18.70
2016,03,30,17,23,18.70
2016,03,30,17,24,18.80
2016,03,30,17,25,18.80
2016,03,30,17,26,18.80
2016,03,30,17,27,18.80
2016,03,30,17,28,18.90
2016,03,30,17,29,18.90
2016,03,30,17,30,18.90
2016,03,30,17,31,18.80
2016,03,30,17,32,18.80
2016,03,30,17,33,18.80
2016,03,30,17,34,18.80
2016,03,30,17,35,18.80
2016,03,30,17,36,18.90
2016,03,30,17,37,18.90
2016,03,30,17,38,18.90
2016,03,30,17,39,18.90
2016,03,30,17,40,18.90